LEAS Weather Reports


time (UTC)temp
F
wind
direction
speed
knots
gust
knots
rain 1hr
in
rain 24hr
in
rain mn
in
humidity
%
barometer
mb
20260508080004 57 0 1.7 0.0 0.00 0.00 0.00 82 1007.0
20260508074503 57 0 1.7 0.0 0.00 0.00 0.00 82 1007.0
20260508073004 55 0 0.9 0.0 0.00 0.00 0.00 87 1007.0
20260508071504 55 0 0.9 0.0 0.00 0.00 0.00 87 1007.0
20260508070005 55 220 2.6 0.0 0.00 0.00 0.00 87 1007.0
20260508063004 55 220 4.3 0.0 0.00 0.00 0.00 87 1007.0
20260508060004 55 210 2.6 0.0 0.00 0.00 0.00 87 1007.0
20260508054504 55 210 2.6 0.0 0.00 0.00 0.00 87 1007.0
20260508050004 55 230 4.3 0.0 0.00 0.00 0.00 87 1007.0
20260508044504 55 230 4.3 0.0 0.00 0.00 0.00 87 1007.0
20260508043004 54 240 2.6 0.0 0.00 0.00 0.00 93 1008.0
20260508041505 54 240 2.6 0.0 0.00 0.00 0.00 93 1008.0
20260508034504 54 220 2.6 0.0 0.00 0.00 0.00 93 1008.0
20260508033004 54 0 1.7 0.0 0.00 0.00 0.00 93 1008.0
20260508031504 54 0 1.7 0.0 0.00 0.00 0.00 93 1008.0
20260508030004 54 200 0.9 0.0 0.00 0.00 0.00 93 1008.0
20260508024504 54 200 0.9 0.0 0.00 0.00 0.00 93 1008.0
20260508020004 54 0 1.7 0.0 0.00 0.00 0.00 100 1009.0
20260508014504 54 0 1.7 0.0 0.00 0.00 0.00 100 1009.0
20260508011504 55 240 2.6 0.0 0.00 0.00 0.00 93 1009.0
20260508010004 55 0 1.7 0.0 0.00 0.00 0.00 93 1009.0
20260508000004 55 180 2.6 0.0 0.00 0.00 0.00 93 1010.0
20260507230005 54 160 1.7 0.0 0.00 0.00 0.00 93 1010.0
20260507224504 54 160 1.7 0.0 0.00 0.00 0.00 93 1010.0
20260507223004 54 0 1.7 0.0 0.00 0.00 0.00 100 1010.0
20260507214504 55 0 1.7 0.0 0.00 0.00 0.00 93 1010.0
20260507213004 57 250 4.3 0.0 0.00 0.00 0.00 93 1010.0
20260507211504 57 250 4.3 0.0 0.00 0.00 0.00 93 1010.0
20260507203004 59 270 5.2 0.0 0.00 0.00 0.00 82 1010.0
20260507191503 61 80 2.6 0.0 0.00 0.00 0.00 82 1009.0
20260507181504 61 90 7.0 0.0 0.00 0.00 0.00 77 1009.0
20260507180005 61 50 4.3 0.0 0.00 0.00 0.00 77 1009.0
20260507174504 61 50 4.3 0.0 0.00 0.00 0.00 77 1009.0
20260507173005 61 40 2.6 0.0 0.00 0.00 0.00 77 1009.0
20260507171504 61 40 2.6 0.0 0.00 0.00 0.00 77 1009.0
20260507170004 61 50 2.6 0.0 0.00 0.00 0.00 77 1009.0
20260507163004 61 80 7.0 0.0 0.00 0.00 0.00 77 1009.0
20260507161504 61 80 7.0 0.0 0.00 0.00 0.00 77 1009.0
20260507160005 63 100 7.0 0.0 0.00 0.00 0.00 63 1009.0
20260507151505 64 80 7.8 0.0 0.00 0.00 0.00 63 1009.0
20260507150005 64 70 0.9 0.0 0.00 0.00 0.00 72 1009.0
20260507144504 64 70 0.9 0.0 0.00 0.00 0.00 72 1009.0
20260507141504 64 60 7.0 0.0 0.00 0.00 0.00 67 1009.0
20260507140005 63 50 0.9 0.0 0.00 0.00 0.00 67 1009.0
20260507133004 64 60 7.0 0.0 0.00 0.00 0.00 67 1010.0
20260507131504 64 60 7.0 0.0 0.00 0.00 0.00 67 1010.0
20260507130004 64 50 7.8 0.0 0.00 0.00 0.00 67 1010.0
20260507121504 64 60 7.0 0.0 0.00 0.00 0.00 72 1010.0
20260507120005 63 30 7.0 0.0 0.00 0.00 0.00 72 1010.0
20260507114504 63 30 7.0 0.0 0.00 0.00 0.00 72 1010.0
20260507113004 63 60 5.2 0.0 0.00 0.00 0.00 72 1011.0
20260507111506 63 60 5.2 0.0 0.00 0.00 0.00 72 1011.0
20260507110005 63 120 5.2 0.0 0.00 0.00 0.00 67 1011.0
20260507100005 61 100 7.0 0.0 0.00 0.00 0.00 72 1011.0
20260507094504 61 100 7.0 0.0 0.00 0.00 0.00 72 1011.0
20260507091504 59 120 6.1 0.0 0.00 0.00 0.00 72 1011.0
20260507090005 57 110 7.0 0.0 0.00 0.00 0.00 76 1011.0
20260507084504 57 110 7.0 0.0 0.00 0.00 0.00 76 1011.0